When you browse on this site, cookies collect data to enhance your experience and personalize the content and advertising you see.
Visit our Privacy Policy to learn more. By continuing to use the site, you agree to this use of cookies and data.
  • In Spain
  • List of Countries
  • For 7 days
  • Water Temperature
  • Weather Map
  • Weather Widgets
  • user-avatar
    Login

    Hourly Weather Jarim

    Today, 23 August, Friday

    Time Temperature Precipitation Wind Pressure Humidity
    00:00 +16°C° 0 mm 0 mps 552 mmHg 67%
    01:00 +16°C° 0 mm 0 mps 552 mmHg 67%
    02:00 +15°C° 0 mm 0 mps 551 mmHg 67%
    03:00 +15°C° 0 mm 0 mps 551 mmHg 67%
    04:00 +15°C° 0 mm 0 mps 551 mmHg 67%
    05:00 +15°C° 0 mm 0 mps 551 mmHg 66%
    06:00 +14°C° 0 mm 0 mps 551 mmHg 66%
    07:00 +16°C° 0 mm 0 mps 552 mmHg 58%
    08:00 +18°C° 0 mm 0 mps 553 mmHg 49%
    09:00 +21°C° 0 mm 1 mps 554 mmHg 40%
    10:00 +21°C° 0.1 mm 2 mps 555 mmHg 37%
    11:00 +22°C° 0.1 mm 3 mps 555 mmHg 34%
    12:00 +24°C° 0.1 mm 3 mps 556 mmHg 31%
    13:00 +22°C° 0.8 mm 4 mps 555 mmHg 36%
    14:00 +22°C° 0.8 mm 4 mps 554 mmHg 41%
    15:00 +21°C° 0.8 mm 4 mps 553 mmHg 46%
    16:00 +20°C° 1.1 mm 3 mps 553 mmHg 52%
    17:00 +19°C° 1.1 mm 3 mps 552 mmHg 57%
    18:00 +18°C° 1.1 mm 3 mps 552 mmHg 62%
    19:00 +18°C° 0.3 mm 3 mps 552 mmHg 63%
    20:00 +18°C° 0.3 mm 2 mps 552 mmHg 63%
    21:00 +18°C° 0.3 mm 1 mps 552 mmHg 64%
    22:00 +18°C° 0 mm 1 mps 552 mmHg 63%
    23:00 +18°C° 0 mm 1 mps 552 mmHg 61%

    Tomorrow, 24 August, Saturday

    Time Temperature Precipitation Wind Pressure Humidity
    00:00 +18°C° 0 mm 1 mps 552 mmHg 60%
    01:00 +18°C° 0 mm 1 mps 552 mmHg 59%
    02:00 +16°C° 0 mm 1 mps 552 mmHg 58%
    03:00 +15°C° 0 mm 0 mps 551 mmHg 57%
    04:00 +15°C° 0 mm 0 mps 551 mmHg 55%
    05:00 +15°C° 0 mm 0 mps 552 mmHg 54%
    06:00 +14°C° 0 mm 0 mps 552 mmHg 53%
    07:00 +18°C° 0 mm 1 mps 553 mmHg 45%
    08:00 +20°C° 0 mm 1 mps 554 mmHg 37%
    09:00 +21°C° 0 mm 1 mps 555 mmHg 29%
    10:00 +22°C° 0 mm 1 mps 555 mmHg 30%
    11:00 +21°C° 0 mm 2 mps 555 mmHg 30%
    12:00 +23°C° 0 mm 2 mps 555 mmHg 31%
    13:00 +22°C° 0 mm 3 mps 555 mmHg 34%
    14:00 +21°C° 0 mm 4 mps 554 mmHg 37%
    15:00 +21°C° 0 mm 4 mps 553 mmHg 40%
    16:00 +20°C° 0.4 mm 4 mps 553 mmHg 46%
    17:00 +19°C° 0.4 mm 4 mps 553 mmHg 52%
    18:00 +18°C° 0.4 mm 4 mps 553 mmHg 58%
    19:00 +18°C° 0.1 mm 3 mps 553 mmHg 60%
    20:00 +17°C° 0.1 mm 3 mps 553 mmHg 62%
    21:00 +17°C° 0.1 mm 2 mps 553 mmHg 64%
    22:00 +17°C° 0 mm 2 mps 553 mmHg 62%
    23:00 +18°C° 0 mm 1 mps 552 mmHg 59%

    Day after tomorrow, 25 August, Sunday

    Time Temperature Precipitation Wind Pressure Humidity
    00:00 +18°C° 0 mm 1 mps 552 mmHg 57%
    01:00 +16°C° 0 mm 1 mps 552 mmHg 56%
    02:00 +16°C° 0 mm 1 mps 551 mmHg 55%
    03:00 +16°C° 0 mm 1 mps 551 mmHg 54%
    04:00 +16°C° 0 mm 1 mps 551 mmHg 54%
    05:00 +16°C° 0 mm 1 mps 551 mmHg 54%
    06:00 +16°C° 0 mm 1 mps 551 mmHg 55%
    07:00 +18°C° 0 mm 1 mps 552 mmHg 51%
    08:00 +18°C° 0 mm 2 mps 553 mmHg 47%
    09:00 +19°C° 0 mm 2 mps 554 mmHg 44%
    10:00 +20°C° 0 mm 3 mps 554 mmHg 42%
    11:00 +21°C° 0 mm 3 mps 554 mmHg 40%
    12:00 +21°C° 0 mm 4 mps 555 mmHg 39%
    13:00 +21°C° 0.3 mm 3 mps 554 mmHg 43%
    14:00 +20°C° 0.3 mm 2 mps 553 mmHg 47%
    15:00 +19°C° 0.3 mm 2 mps 552 mmHg 51%
    16:00 +18°C° 0.6 mm 3 mps 552 mmHg 55%
    17:00 +18°C° 0.6 mm 3 mps 551 mmHg 60%
    18:00 +17°C° 0.6 mm 4 mps 551 mmHg 65%
    19:00 +17°C° 0.2 mm 3 mps 551 mmHg 68%
    20:00 +16°C° 0.2 mm 2 mps 551 mmHg 71%
    21:00 +16°C° 0.2 mm 2 mps 551 mmHg 74%
    22:00 +16°C° 0 mm 1 mps 551 mmHg 71%
    23:00 +16°C° 0 mm 1 mps 551 mmHg 69%

    26 August, Monday

    Time Temperature Precipitation Wind Pressure Humidity
    00:00 +16°C° 0 mm 1 mps 551 mmHg 67%
    01:00 +16°C° 0 mm 1 mps 551 mmHg 65%
    02:00 +16°C° 0 mm 1 mps 550 mmHg 64%
    03:00 +16°C° 0 mm 1 mps 550 mmHg 63%
    04:00 +15°C° 0 mm 1 mps 550 mmHg 62%
    05:00 +15°C° 0 mm 1 mps 550 mmHg 61%
    06:00 +15°C° 0 mm 1 mps 550 mmHg 60%
    07:00 +18°C° 0 mm 1 mps 552 mmHg 50%
    08:00 +19°C° 0 mm 2 mps 553 mmHg 39%
    09:00 +22°C° 0 mm 3 mps 555 mmHg 29%
    10:00 +22°C° 0 mm 3 mps 555 mmHg 28%
    11:00 +24°C° 0 mm 3 mps 555 mmHg 26%
    12:00 +25°C° 0 mm 3 mps 555 mmHg 25%
    13:00 +23°C° 0.6 mm 4 mps 554 mmHg 31%
    14:00 +23°C° 0.6 mm 4 mps 554 mmHg 36%
    15:00 +22°C° 0.6 mm 5 mps 553 mmHg 42%
    16:00 +21°C° 1 mm 4 mps 553 mmHg 46%
    17:00 +20°C° 1 mm 3 mps 552 mmHg 50%
    18:00 +20°C° 1 mm 2 mps 552 mmHg 54%
    19:00 +19°C° 0.2 mm 2 mps 552 mmHg 56%
    20:00 +20°C° 0.2 mm 1 mps 552 mmHg 59%
    21:00 +19°C° 0.2 mm 1 mps 552 mmHg 62%
    22:00 +19°C° 0 mm 1 mps 552 mmHg 62%
    23:00 +19°C° 0 mm 1 mps 552 mmHg 62%

    27 August, Tuesday

    Time Temperature Precipitation Wind Pressure Humidity
    00:00 +19°C° 0 mm 1 mps 551 mmHg 62%
    01:00 +19°C° 0 mm 1 mps 551 mmHg 61%
    02:00 +18°C° 0 mm 1 mps 551 mmHg 59%
    03:00 +18°C° 0 mm 1 mps 550 mmHg 58%
    04:00 +18°C° 0 mm 1 mps 551 mmHg 59%
    05:00 +15°C° 0 mm 0 mps 551 mmHg 59%
    06:00 +15°C° 0 mm 0 mps 551 mmHg 60%
    07:00 +19°C° 0 mm 1 mps 552 mmHg 52%
    08:00 +20°C° 0 mm 1 mps 553 mmHg 44%
    09:00 +22°C° 0 mm 1 mps 554 mmHg 36%
    10:00 +21°C° 0 mm 2 mps 554 mmHg 36%
    11:00 +22°C° 0 mm 3 mps 554 mmHg 35%
    12:00 +23°C° 0 mm 4 mps 554 mmHg 35%
    13:00 +22°C° 0.5 mm 4 mps 554 mmHg 38%
    14:00 +22°C° 0.5 mm 4 mps 553 mmHg 41%
    15:00 +22°C° 0.5 mm 4 mps 552 mmHg 44%
    16:00 +21°C° 0.7 mm 4 mps 552 mmHg 49%
    17:00 +20°C° 0.7 mm 4 mps 551 mmHg 54%
    18:00 +19°C° 0.7 mm 3 mps 551 mmHg 60%
    19:00 +18°C° 0.1 mm 2 mps 551 mmHg 62%
    20:00 +18°C° 0.1 mm 2 mps 552 mmHg 64%
    21:00 +19°C° 0.1 mm 1 mps 552 mmHg 67%
    22:00 +19°C° 0 mm 1 mps 552 mmHg 65%
    23:00 +19°C° 0 mm 1 mps 551 mmHg 64%

    28 August, Wednesday

    Time Temperature Precipitation Wind Pressure Humidity
    00:00 +19°C° 0 mm 1 mps 551 mmHg 63%
    01:00 +19°C° 0 mm 1 mps 551 mmHg 63%
    02:00 +16°C° 0 mm 0 mps 551 mmHg 64%
    03:00 +16°C° 0 mm 0 mps 550 mmHg 65%
    04:00 +15°C° 0 mm 0 mps 550 mmHg 65%
    05:00 +15°C° 0 mm 0 mps 550 mmHg 66%
    06:00 +15°C° 0 mm 0 mps 550 mmHg 67%
    07:00 +18°C° 0 mm 1 mps 551 mmHg 59%
    08:00 +20°C° 0 mm 1 mps 552 mmHg 52%
    09:00 +21°C° 0 mm 1 mps 554 mmHg 44%
    10:00 +20°C° 0.4 mm 2 mps 553 mmHg 44%
    11:00 +20°C° 0.4 mm 2 mps 553 mmHg 44%
    12:00 +21°C° 0.4 mm 2 mps 553 mmHg 44%
    13:00 +20°C° 1.3 mm 3 mps 552 mmHg 49%
    14:00 +19°C° 1.3 mm 4 mps 551 mmHg 54%
    15:00 +18°C° 1.3 mm 4 mps 551 mmHg 59%
    16:00 +18°C° 0.9 mm 4 mps 551 mmHg 61%
    17:00 +17°C° 0.9 mm 3 mps 550 mmHg 64%
    18:00 +16°C° 0.9 mm 2 mps 550 mmHg 66%
    19:00 +16°C° 0.2 mm 2 mps 550 mmHg 66%
    20:00 +16°C° 0.2 mm 1 mps 551 mmHg 66%
    21:00 +16°C° 0.2 mm 1 mps 551 mmHg 65%
    22:00 +16°C° 0 mm 1 mps 551 mmHg 64%
    23:00 +16°C° 0 mm 1 mps 551 mmHg 63%
    Show more